PRAETORIAN SDA_618

导读

PRAETORIAN SDA_619是一颗由美国发射的军用卫星,于2025年9月10日在美国加利福尼亚州空军西部试验场发射升空,目前处于在轨运行状态。它同另外20颗PRAETORIAN系列卫星共同发射入轨,轨道平均高度约为952公里,轨道倾角约81.3度,属于美国军方保密军事卫星,具体任务暂未公开。

基本信息
目录编号:
65582
目录名称:
PRAETORIAN SDA_619
国际标识:
2025-203T
轨道中心:
EARTH
卫星名称:
PRAETORIAN SDA_619
卫星全名:
PRAETORIAN SDA_618
卫星状态:
在轨 (已飞行278 天)
发射日期:
2025-09-10 UTC
国别 :
美国 (US)
星等 :
--
轨道信息
数据来源 国际轨道数据 AOE轨道数据
星历时间 2026-06-15T04:16:52+0800
5小时前
查看轨道信息
2026-06-15T05:00:00+0800
5小时前
查看轨道信息
半长轴 7328.559km 7328.565km
偏心率 0.0007916 0.0007909
轨道倾角 81.304° 81.304°
近地点辐角 192.304° 191.522°
升交点赤经 12.953° 12.924°
平近点角 167.793° 317.738°
近地点 944.62km 944.631km
远地点 956.224km 956.225km
周期 104.061分钟 104.061分钟
每日圈数 13.83805 13.838035
详细信息
使用方式:
暂无
2D轨道图
3D轨道图
轨道高度分析图
轨道倾角分析图
轨道综合分析图
查看轨道综合分析图